CZ-2C R/B, 52794

Orbit data source: Space-Track

CZ-2C R/B, 52794 is space debris in LEO originally from a launch on Thu, 02 Jun 2022 UTC launched from the Xichang Space Center, China (XSC). Debris objects in space refer to the collection of defunct objects orbiting the Earth. Examples of debris include non-operational satellites, rocket bodies, and fragments generated from explosions, collisions, or faulty payload assembly.

Loading next visibility...
Identifier
52794, 2022-058K
Orbit
LEO
Country
Flag of CNCN / PRC
Related business
Manufacturer
CALT
Mission
Spacecraft
Bus & Motor
CZ-2 STAGE 2, Unknown motor
Mass
~3,800 kg wet, ~3,800 kg dry
Launch date (UTC)
2022-06-02 (4 years ago)
Launch vehicle
Unknown
Launch site
Xichang Space Center, China (XSC)
Object type
Payload
Rocket body
Debris
Shape & HBR
Cyl, 3.7 m
Radar Cross Section
23.715 m², Large (>1 m²)

Expand to show TLE details & history
Last TLE update: 1 day ago

TLE from 1 day ago
0 CZ-2C R/B
1 52794U 22058K   25348.42035271  .00024350  00000-0  43660-3 0  9996
2 52794  50.1911  34.9776 0045249 205.4235 154.4507 15.48608228196890
Epoch: 2025-12-14T10:05Z
TLE epoch observation values (Epoch: 2025-12-14T10:05:18.474Z)
Latitude
-0.00001°
Longitude
160.31709°
Altitude
449.158 km
Speed
7.629 km/s
True Right ascension
02h 19m 54s
True Declination
0° 00' 00"
Sunlit
Object was in full shadow at epoch
Visualization orbit readout
Latitude
Unknown
Longitude
Unknown
Altitude
Unknown
Speed
Unknown
Apparent Right ascension
Unknown
Apparent Declination
Unknown
Sunlit
N/A
Visualization observer readout
Local Sidereal Time
13:23:47
Azimuth
Unknown
Elevation
Unknown
Doppler factor
Unknown
Orbital elements
Apogee altitude
452.313 km
Perigee altitude
390.777 km
Semi-major axis
6,799.682 km
Eccentricity
0.00452
Inclination
50.1911°
RAAN
34.9776°
Arg. of periapsis
205.4235°
True anomaly
154.67319°
Mean anomaly
154.4507°
Eccentric anomaly
154.56206°
Mean motion
3.87089 °/min
Orbital period
93 mins
BSTAR
0.0004366
Loading maneuver chart data...
Computing Atmospheric mass density...
Loading historical data...
Loading historical data...
Loading historical data...
Loading historical data...
Loading historical data...
Loading historical data...
Loading historical data...

Documentation

Showing up to 5 results
|